Hourly Data Report for November 08, 2017

TORONTO CITY
ONTARIO

43°40'00.000" N
79°24'00.000" W
112.50 m
6158355
71508
XTO

Download Data

Hourly Data (November 2017)
Hourly Data Report for November 8, 2017
TIME
LST
Temp Definition
°C
Dew Point Definition
°C
Rel Hum Definition
%
Precip. Amount Definition
mm

Wind Dir Definition
10's deg

Wind Spd Definition
km/h
Visibility Definition
km
Stn Press Definition
kPa
Hmdx Definition


Wind Chill Definition


Weather Definition


00:00 3.9 -1.5 68 0.0 LegendMM LegendMM   101.10     LegendNANA
01:00 2.4 -2.7 69 0.0 LegendMM LegendMM   101.10     LegendNANA
02:00 2.8 -3.0 66 0.0 LegendMM LegendMM   101.09     LegendNANA
03:00 1.9 -2.5 73 0.0 LegendMM LegendMM   101.10     LegendNANA
04:00 1.9 -2.6 72 0.0 LegendMM LegendMM   101.11     LegendNANA
05:00 3.2 -3.1 63 0.0 LegendMM LegendMM   101.16     LegendNANA
06:00 2.3 -3.5 65 0.0 LegendMM LegendMM   101.17     LegendNANA
07:00 1.7 -3.7 67 0.0 LegendMM LegendMM   101.21     LegendNANA
08:00 1.4 -2.7 74 0.0 LegendMM LegendMM   101.23     LegendNANA
09:00 4.7 -4.2 52 0.0 LegendMM LegendMM   101.24     LegendNANA
10:00 6.1 -4.9 45 0.0 LegendMM LegendMM   101.22     LegendNANA
11:00 6.9 -3.9 46 0.0 LegendMM LegendMM   101.18     LegendNANA
12:00 7.2 -3.7 46 0.0 LegendMM LegendMM   101.13     LegendNANA
13:00 7.9 -3.4 45 0.0 LegendMM LegendMM   101.02     LegendNANA
14:00 7.9 -4.6 41 0.0 LegendMM LegendMM   100.95     LegendNANA
15:00 8.1 -5.1 39 0.0 LegendMM LegendMM   100.90     LegendNANA
16:00 8.1 -5.2 38 0.0 LegendMM LegendMM   100.89     LegendNANA
17:00 7.6 -5.3 40 0.0 LegendMM LegendMM   100.88     LegendNANA
18:00 6.8 -4.7 44 0.0 LegendMM LegendMM   100.91     LegendNANA
19:00 6.6 -4.3 45 0.0 LegendMM LegendMM   100.90     LegendNANA
20:00 5.8 -4.4 48 0.0 LegendMM LegendMM   100.89     LegendNANA
21:00 4.3 -4.1 54 0.0 LegendMM LegendMM   100.88     LegendNANA
22:00 5.1 -4.0 52 0.0 LegendMM LegendMM   100.85     LegendNANA
23:00 3.5 -4.1 57 0.0 LegendMM LegendMM   100.80     LegendNANA

Notes on Data Quality.

Legend

  • E = Estimated
  • M = Missing
  • NA = Not Available*
  • [empty] = Indicates an unobserved value
Date modified: